Location: Ústí nad Labem
(50.6611°N, 14.0531°E)
Time: 11:49:47
(UTC+01:00)

BlueWalker 3 - Visible Passes

Search period start: 28 February 2024 00:00
Search period end: 09 March 2024 00:00
Orbit: 485 x 500 km, 53.2° (Epoch: 27 February)

Date Brightness Start Highest point End Pass type
(mag) Time Alt. Az. Time Alt. Az. Time Alt. Az.
28 Feb 2.2 18:10:44 10° WNW 18:14:28 56° N 18:18:12 10° E visible
28 Feb 1.7 19:49:08 10° WNW 19:52:55 79° SSW 19:53:00 79° S visible
29 Feb 1.8 19:25:16 10° WNW 19:29:03 81° SSW 19:30:13 42° ESE visible
29 Feb 4.9 21:04:01 10° W 21:04:42 13° W 21:04:42 13° W visible
01 Mar 1.9 19:01:23 10° WNW 19:05:10 83° SSW 19:07:28 23° ESE visible
01 Mar 4.2 20:40:06 10° W 20:41:57 19° WSW 20:41:57 19° WSW visible
02 Mar 1.9 18:37:30 10° WNW 18:41:17 84° SSW 18:44:46 12° ESE visible
02 Mar 3.8 20:16:12 10° W 20:19:12 23° SW 20:19:16 23° SW visible
03 Mar 3.8 19:52:15 10° W 19:55:18 23° SW 19:56:38 19° S visible
04 Mar 3.8 19:28:19 10° W 19:31:24 24° SW 19:34:06 12° S visible
05 Mar 3.9 19:04:21 10° W 19:07:28 25° SW 19:10:35 10° SSE visible
06 Mar 3.9 18:40:23 10° W 18:43:32 25° SW 18:46:40 10° SSE visible
